DLH5722 LFMN-EDDM

Flight info

Callsign DLH5722
Flight time 1h 11m
Altitude 32000
Route BASIP DCT ANAKI DCT TAGIP DCT GUNGO DCT IVKAL T102 NINUR T101 BETOS BETOS1A
Aircraft A343/H-SDE2E3FGHIJ4J5M1RWXY/LB1D1

Departure

Time 2026-05-04 17:24
Airport Nice-Côte d'Azur Airport (LFMN)

Arrival

Time 2026-05-04 18:35
Airport Munich Airport (EDDM)
Time Latitude Longitude Altitude Speed Heading
2026-05-04 16:46 43.65774 7.20501 29 ft 0 kts 330°
2026-05-04 16:51 43.65773 7.20501 29 ft 0 kts 330°
2026-05-04 16:55 43.65773 7.20502 26 ft 0 kts 330°
2026-05-04 17:00 43.65772 7.20502 26 ft 0 kts 330°
2026-05-04 17:09 43.65759 7.20512 32 ft 4 kts 329°
2026-05-04 17:09 43.65737 7.20532 32 ft 4 kts 321°
2026-05-04 17:09 43.65719 7.20558 30 ft 4 kts 288°
2026-05-04 17:10 43.65724 7.20586 29 ft 2 kts 226°
2026-05-04 17:10 43.65738 7.20605 32 ft 0 kts 226°
2026-05-04 17:11 43.65738 7.20606 32 ft 0 kts 226°
2026-05-04 17:17 43.65718 7.20576 30 ft 11 kts 226°
2026-05-04 17:17 43.65456 7.20215 32 ft 15 kts 223°
2026-05-04 17:18 43.65388 7.20180 29 ft 7 kts 172°
2026-05-04 17:18 43.65345 7.20233 29 ft 1 kts 112°
2026-05-04 17:19 43.65310 7.20274 30 ft 0 kts 144°
2026-05-04 17:21 43.65229 7.20361 26 ft 15 kts 140°
2026-05-04 17:21 43.65036 7.20500 26 ft 16 kts 198°
2026-05-04 17:22 43.64931 7.20381 26 ft 16 kts 226°
2026-05-04 17:22 43.64845 7.20262 26 ft 22 kts 225°
2026-05-04 17:23 43.64709 7.20296 26 ft 2 kts 51°
2026-05-04 17:23 43.64720 7.20312 26 ft 17 kts 47°
2026-05-04 17:23 43.65836 7.21810 167 ft 185 kts 48°
2026-05-04 17:24 43.66891 7.23077 839 ft 219 kts 41°
2026-05-04 17:24 43.67696 7.29288 4188 ft 253 kts 130°
2026-05-04 17:25 43.66222 7.30480 5762 ft 246 kts 165°
2026-05-04 17:25 43.62997 7.30488 8624 ft 225 kts 161°
2026-05-04 17:26 43.61378 7.33928 10667 ft 244 kts 88°
2026-05-04 17:26 43.64377 7.40025 13267 ft 270 kts 58°
2026-05-04 17:27 43.66152 7.44689 14986 ft 279 kts 68°
2026-05-04 17:27 43.67634 7.49729 16663 ft 289 kts 71°
2026-05-04 17:28 43.69160 7.55309 17429 ft 332 kts 71°
2026-05-04 17:29 43.71773 7.65090 18432 ft 390 kts 71°
2026-05-04 17:29 43.73711 7.71461 19062 ft 420 kts 59°
2026-05-04 17:30 43.79522 7.80912 20953 ft 439 kts 48°
2026-05-04 17:31 43.83616 7.87300 22344 ft 447 kts 48°
2026-05-04 17:31 43.89679 7.97328 24181 ft 460 kts 56°
2026-05-04 17:32 43.93025 8.04996 25095 ft 470 kts 60°
2026-05-04 17:33 43.97848 8.17070 26479 ft 484 kts 60°
2026-05-04 17:33 43.99495 8.21184 26910 ft 489 kts 60°
2026-05-04 17:34 44.04525 8.33640 28144 ft 501 kts 60°
2026-05-04 17:34 44.06244 8.37890 28566 ft 504 kts 60°
2026-05-04 17:35 44.11450 8.50796 29732 ft 516 kts 60°
2026-05-04 17:35 44.14975 8.59577 30452 ft 522 kts 60°
2026-05-04 17:35 44.16745 8.63996 30776 ft 525 kts 60°
2026-05-04 17:36 44.18572 8.68423 31078 ft 527 kts 56°
2026-05-04 17:36 44.20786 8.72493 31459 ft 526 kts 45°
2026-05-04 17:36 44.23424 8.75991 31911 ft 522 kts 38°
2026-05-04 17:36 44.26202 8.79238 32070 ft 520 kts 36°
2026-05-04 17:37 44.29014 8.82369 32088 ft 512 kts 35°
2026-05-04 17:37 44.34613 8.88429 32105 ft 507 kts 34°
2026-05-04 17:38 44.40146 8.94425 32096 ft 507 kts 35°
2026-05-04 17:38 44.45706 9.00517 32094 ft 507 kts 35°
2026-05-04 17:39 44.54019 9.09697 32069 ft 507 kts 35°
2026-05-04 17:39 44.59555 9.15833 32084 ft 507 kts 35°
2026-05-04 17:40 44.65079 9.21968 32077 ft 505 kts 36°
2026-05-04 17:40 44.70574 9.28086 32075 ft 503 kts 36°
2026-05-04 17:41 44.76070 9.34219 32077 ft 503 kts 36°
2026-05-04 17:41 44.81550 9.40352 32066 ft 503 kts 36°
2026-05-04 17:42 44.87006 9.46472 32053 ft 501 kts 36°
2026-05-04 17:42 44.92458 9.52600 32052 ft 500 kts 36°
2026-05-04 17:43 44.97899 9.58733 32029 ft 501 kts 36°
2026-05-04 17:43 45.03326 9.64863 32055 ft 497 kts 37°
2026-05-04 17:44 45.08720 9.70976 32052 ft 496 kts 37°
2026-05-04 17:44 45.14072 9.77055 32058 ft 497 kts 37°
2026-05-04 17:45 45.19455 9.83186 32055 ft 496 kts 37°
2026-05-04 17:45 45.24804 9.89310 32054 ft 495 kts 37°
2026-05-04 17:46 45.30173 9.95465 32040 ft 495 kts 37°
2026-05-04 17:46 45.35525 10.01606 32050 ft 495 kts 37°
2026-05-04 17:47 45.40869 10.07752 32052 ft 494 kts 38°
2026-05-04 17:47 45.46216 10.13915 32049 ft 494 kts 38°
2026-05-04 17:48 45.51546 10.20074 32048 ft 492 kts 38°
2026-05-04 17:48 45.56852 10.26222 32054 ft 491 kts 38°
2026-05-04 17:49 45.62126 10.32348 32058 ft 491 kts 38°
2026-05-04 17:49 45.67429 10.38524 32078 ft 491 kts 38°
2026-05-04 17:50 45.72718 10.44698 32118 ft 491 kts 38°
2026-05-04 17:50 45.78008 10.50889 32130 ft 491 kts 38°
2026-05-04 17:51 45.83291 10.57086 32126 ft 491 kts 39°
2026-05-04 17:51 45.88574 10.63301 32144 ft 491 kts 39°
2026-05-04 17:52 45.93998 10.69237 32156 ft 490 kts 30°
2026-05-04 17:52 45.99925 10.74042 32164 ft 489 kts 27°
2026-05-04 17:53 46.05941 10.78670 32188 ft 490 kts 27°
2026-05-04 17:53 46.11966 10.83276 32183 ft 491 kts 27°
2026-05-04 17:54 46.17998 10.87918 32190 ft 491 kts 27°
2026-05-04 17:54 46.24024 10.92583 32175 ft 491 kts 27°
2026-05-04 17:55 46.30004 10.97227 32183 ft 491 kts 27°
2026-05-04 17:55 46.36025 11.01914 32181 ft 491 kts 27°
2026-05-04 17:56 46.42376 11.05410 32155 ft 488 kts
2026-05-04 17:56 46.49094 11.05982 32141 ft 483 kts 356°
2026-05-04 17:57 46.55813 11.05560 32114 ft 483 kts 354°
2026-05-04 17:57 46.62514 11.04998 32116 ft 483 kts 354°
2026-05-04 17:58 46.69232 11.04464 32083 ft 482 kts 354°
2026-05-04 17:58 46.72590 11.04211 31849 ft 487 kts 355°
2026-05-04 17:58 46.75997 11.03959 31582 ft 492 kts 355°
2026-05-04 17:59 46.79426 11.03708 31328 ft 493 kts 355°
2026-05-04 17:59 46.82841 11.03356 31085 ft 492 kts 352°
2026-05-04 17:59 46.89588 11.02043 30563 ft 489 kts 349°
2026-05-04 18:00 46.92971 11.01369 30301 ft 493 kts 353°
2026-05-04 18:00 46.96411 11.01327 30026 ft 491 kts
2026-05-04 18:00 46.99803 11.01641 29753 ft 487 kts
2026-05-04 18:00 47.03163 11.02073 29459 ft 486 kts
2026-05-04 18:01 47.06589 11.02582 29180 ft 484 kts
2026-05-04 18:01 47.09875 11.03100 28909 ft 479 kts
2026-05-04 18:01 47.13179 11.03629 28614 ft 476 kts
2026-05-04 18:02 47.19730 11.04664 28064 ft 472 kts
2026-05-04 18:02 47.22996 11.05166 27795 ft 470 kts
2026-05-04 18:02 47.26240 11.05662 27535 ft 468 kts
2026-05-04 18:02 47.29470 11.06157 27264 ft 465 kts
2026-05-04 18:03 47.32687 11.06654 27002 ft 462 kts
2026-05-04 18:03 47.35874 11.07143 26733 ft 460 kts
2026-05-04 18:03 47.39039 11.07633 26086 ft 451 kts
2026-05-04 18:03 47.42104 11.08106 24822 ft 435 kts
2026-05-04 18:04 47.45077 11.08564 23019 ft 429 kts
2026-05-04 18:04 47.48067 11.09020 21232 ft 434 kts
2026-05-04 18:04 47.54085 11.09976 19736 ft 429 kts
2026-05-04 18:05 47.56952 11.11088 19214 ft 425 kts 20°
2026-05-04 18:05 47.59592 11.12863 18644 ft 420 kts 26°
2026-05-04 18:05 47.62159 11.14894 18043 ft 416 kts 29°
2026-05-04 18:05 47.64657 11.17040 17368 ft 413 kts 30°
2026-05-04 18:06 47.69542 11.21400 16075 ft 406 kts 30°
2026-05-04 18:06 47.71959 11.23549 15451 ft 402 kts 30°
2026-05-04 18:06 47.74451 11.25346 15055 ft 397 kts 22°
2026-05-04 18:07 47.76998 11.26923 14949 ft 397 kts 21°
2026-05-04 18:07 47.79576 11.28415 14939 ft 397 kts 20°
2026-05-04 18:07 47.82162 11.29859 14940 ft 396 kts 19°
2026-05-04 18:07 47.84718 11.31264 14942 ft 396 kts 19°
2026-05-04 18:08 47.87313 11.32622 14940 ft 396 kts 14°
2026-05-04 18:08 47.90019 11.33355 14944 ft 395 kts
2026-05-04 18:08 47.92759 11.33702 14940 ft 396 kts
2026-05-04 18:08 47.95518 11.33977 14936 ft 397 kts
2026-05-04 18:09 48.00868 11.34467 14950 ft 370 kts
2026-05-04 18:09 48.05801 11.36218 14943 ft 371 kts 33°
2026-05-04 18:10 48.07633 11.38883 14920 ft 368 kts 57°
2026-05-04 18:10 48.08743 11.42265 14545 ft 361 kts 72°
2026-05-04 18:10 48.09585 11.45803 14014 ft 361 kts 71°
2026-05-04 18:10 48.10941 11.48956 13136 ft 374 kts 46°
2026-05-04 18:11 48.13133 11.51173 12240 ft 381 kts 21°
2026-05-04 18:11 48.15675 11.52004 11580 ft 379 kts
2026-05-04 18:11 48.18272 11.52651 10935 ft 379 kts 13°
2026-05-04 18:11 48.20740 11.53971 10356 ft 377 kts 24°
2026-05-04 18:12 48.22970 11.55947 10043 ft 366 kts 41°
2026-05-04 18:12 48.24441 11.58898 9958 ft 345 kts 68°
2026-05-04 18:12 48.24928 11.62261 9954 ft 320 kts 90°
2026-05-04 18:12 48.24996 11.65519 9945 ft 305 kts 91°
2026-05-04 18:13 48.25086 11.68658 9943 ft 300 kts 89°
2026-05-04 18:13 48.25232 11.71789 9940 ft 300 kts 88°
2026-05-04 18:13 48.25629 11.78022 9938 ft 301 kts 86°
2026-05-04 18:14 48.25851 11.81119 9938 ft 301 kts 86°
2026-05-04 18:14 48.26082 11.84265 9939 ft 301 kts 86°
2026-05-04 18:14 48.26236 11.86327 9938 ft 301 kts 86°
2026-05-04 18:15 48.26705 11.92565 9863 ft 298 kts 86°
2026-05-04 18:15 48.27168 11.98734 9098 ft 296 kts 85°
2026-05-04 18:15 48.27397 12.01792 8734 ft 294 kts 85°
2026-05-04 18:16 48.27625 12.04833 8384 ft 292 kts 85°
2026-05-04 18:16 48.27849 12.07849 8044 ft 290 kts 85°
2026-05-04 18:16 48.28071 12.10846 7681 ft 287 kts 85°
2026-05-04 18:17 48.28506 12.16756 7014 ft 283 kts 85°
2026-05-04 18:17 48.28722 12.19691 6664 ft 280 kts 85°
2026-05-04 18:17 48.30248 12.24872 6032 ft 278 kts 40°
2026-05-04 18:18 48.31940 12.26139 5979 ft 279 kts 13°
2026-05-04 18:18 48.33875 12.26300 5980 ft 279 kts 356°
2026-05-04 18:18 48.35754 12.25596 5978 ft 280 kts 332°
2026-05-04 18:18 48.37230 12.23735 5983 ft 279 kts 306°
2026-05-04 18:19 48.39038 12.18587 5975 ft 278 kts 291°
2026-05-04 18:19 48.39376 12.15740 5884 ft 278 kts 269°
2026-05-04 18:19 48.39201 12.12855 5591 ft 276 kts 260°
2026-05-04 18:20 48.39086 12.09984 5291 ft 275 kts 277°
2026-05-04 18:20 48.39657 12.07252 5552 ft 277 kts 292°
2026-05-04 18:20 48.40455 12.04590 5896 ft 278 kts 294°
2026-05-04 18:20 48.41156 12.02344 5986 ft 277 kts 294°
2026-05-04 18:21 48.41826 12.00211 5997 ft 277 kts 294°
2026-05-04 18:21 48.42654 11.97582 5992 ft 277 kts 294°
2026-05-04 18:21 48.43480 11.94954 5993 ft 278 kts 294°
2026-05-04 18:21 48.44304 11.92331 5992 ft 277 kts 294°
2026-05-04 18:22 48.45130 11.89701 5993 ft 277 kts 294°
2026-05-04 18:22 48.45954 11.87076 5993 ft 277 kts 294°
2026-05-04 18:22 48.46768 11.84480 5997 ft 277 kts 294°
2026-05-04 18:22 48.47592 11.81852 5991 ft 277 kts 294°
2026-05-04 18:23 48.48680 11.79463 5993 ft 280 kts 316°
2026-05-04 18:23 48.50349 11.77983 5992 ft 280 kts 342°
2026-05-04 18:23 48.52271 11.77750 5982 ft 280 kts
2026-05-04 18:23 48.54066 11.78806 5978 ft 279 kts 35°
2026-05-04 18:24 48.55384 11.80908 5800 ft 275 kts 59°
2026-05-04 18:24 48.56128 11.83544 5411 ft 272 kts 72°
2026-05-04 18:24 48.56682 11.86265 5083 ft 270 kts 74°
2026-05-04 18:24 48.57208 11.88988 4988 ft 271 kts 74°
2026-05-04 18:25 48.57732 11.91732 4984 ft 271 kts 74°
2026-05-04 18:25 48.58251 11.94463 4984 ft 271 kts 74°
2026-05-04 18:25 48.58442 11.97272 4985 ft 271 kts 96°
2026-05-04 18:25 48.57852 11.99953 4988 ft 270 kts 118°
2026-05-04 18:26 48.56863 12.02355 4990 ft 269 kts 123°
2026-05-04 18:26 48.55810 12.04688 4985 ft 269 kts 124°
2026-05-04 18:26 48.54752 12.07013 4982 ft 269 kts 124°
2026-05-04 18:26 48.53703 12.09312 4983 ft 259 kts 124°
2026-05-04 18:27 48.52713 12.11479 4995 ft 243 kts 124°
2026-05-04 18:27 48.51758 12.13522 4985 ft 236 kts 128°
2026-05-04 18:27 48.50462 12.15007 4991 ft 237 kts 158°
2026-05-04 18:27 48.48861 12.15559 4991 ft 237 kts 172°
2026-05-04 18:28 48.47218 12.15815 4985 ft 238 kts 174°
2026-05-04 18:28 48.45589 12.16028 4985 ft 237 kts 174°
2026-05-04 18:28 48.43943 12.16243 4987 ft 238 kts 174°
2026-05-04 18:28 48.42290 12.16450 4987 ft 239 kts 174°
2026-05-04 18:29 48.40633 12.16643 4983 ft 239 kts 174°
2026-05-04 18:29 48.38944 12.16637 4978 ft 249 kts 192°
2026-05-04 18:29 48.37463 12.15329 4983 ft 249 kts 228°
2026-05-04 18:29 48.36797 12.13060 4992 ft 234 kts 263°
2026-05-04 18:30 48.36659 12.08590 5016 ft 191 kts 262°
2026-05-04 18:30 48.36486 12.06630 4920 ft 187 kts 261°
2026-05-04 18:30 48.36327 12.04693 4672 ft 186 kts 261°
2026-05-04 18:31 48.36180 12.02751 4397 ft 187 kts 262°
2026-05-04 18:31 48.36033 12.00807 4137 ft 187 kts 263°
2026-05-04 18:31 48.35886 11.98866 3879 ft 187 kts 263°
2026-05-04 18:31 48.35738 11.96932 3632 ft 186 kts 263°
2026-05-04 18:32 48.35590 11.95002 3394 ft 186 kts 263°
2026-05-04 18:32 48.35446 11.93124 3164 ft 172 kts 263°
2026-05-04 18:32 48.35314 11.91413 2939 ft 157 kts 263°
2026-05-04 18:32 48.35193 11.89849 2748 ft 144 kts 264°
2026-05-04 18:33 48.35084 11.88417 2547 ft 132 kts 264°
2026-05-04 18:33 48.34980 11.87056 2387 ft 131 kts 264°
2026-05-04 18:33 48.34876 11.85705 2205 ft 129 kts 264°
2026-05-04 18:33 48.34773 11.84377 2047 ft 128 kts 264°
2026-05-04 18:34 48.34677 11.83059 1859 ft 125 kts 264°
2026-05-04 18:34 48.34581 11.81746 1682 ft 126 kts 264°
2026-05-04 18:34 48.34478 11.80445 1502 ft 126 kts 265°
2026-05-04 18:34 48.34383 11.79215 1467 ft 103 kts 263°
2026-05-04 18:35 48.34316 11.78343 1474 ft 56 kts 264°
2026-05-04 18:35 48.34320 11.78005 1470 ft 25 kts 284°
2026-05-04 18:35 48.34381 11.77785 1469 ft 18 kts 295°
2026-05-04 18:35 48.34397 11.77733 1460 ft 0 kts 294°
2026-05-04 18:36 48.34402 11.77715 1466 ft 7 kts 294°
2026-05-04 18:36 48.34426 11.77625 1463 ft 9 kts 291°
2026-05-04 18:36 48.34477 11.77494 1461 ft 22 kts 315°
2026-05-04 18:37 48.34591 11.77434 1463 ft 21 kts 13°
2026-05-04 18:37 48.34639 11.77610 1465 ft 21 kts 83°
2026-05-04 18:37 48.34656 11.77826 1466 ft 21 kts 83°
2026-05-04 18:37 48.34673 11.78044 1471 ft 18 kts 83°
2026-05-04 18:38 48.34689 11.78235 1469 ft 19 kts 82°
2026-05-04 18:38 48.34703 11.78431 1465 ft 19 kts 85°
2026-05-04 18:38 48.34717 11.78630 1465 ft 19 kts 82°
2026-05-04 18:38 48.34732 11.78780 1465 ft 13 kts 83°
2026-05-04 18:39 48.34741 11.78919 1468 ft 14 kts 84°
2026-05-04 18:39 48.34751 11.79079 1463 ft 16 kts 84°
2026-05-04 18:39 48.34766 11.79257 1468 ft 18 kts 83°
2026-05-04 18:39 48.34779 11.79430 1468 ft 16 kts 83°
2026-05-04 18:40 48.34797 11.79536 1459 ft 3 kts 53°
2026-05-04 18:40 48.34816 11.79552 1466 ft 4 kts 22°
2026-05-04 18:40 48.34860 11.79556 1466 ft 10 kts 356°
2026-05-04 18:40 48.34880 11.79553 1463 ft 0 kts 355°
2026-05-04 18:41 48.34886 11.79553 1465 ft 3 kts 356°
2026-05-04 18:41 48.34939 11.79547 1462 ft 11 kts 356°
2026-05-04 18:42 48.35013 11.79535 1466 ft 16 kts 349°
2026-05-04 18:42 48.35056 11.79524 1467 ft 7 kts 352°
2026-05-04 18:42 48.35093 11.79517 1462 ft 0 kts 353°
2026-05-04 18:43 48.35106 11.79505 1462 ft 0 kts 317°
2026-05-04 18:43 48.35110 11.79501 1460 ft 0 kts 317°
2026-05-04 18:44 48.35110 11.79494 1460 ft 1 kts 293°
2026-05-04 18:44 48.35113 11.79471 1465 ft 6 kts 282°
2026-05-04 18:44 48.35114 11.79427 1463 ft 1 kts 267°
2026-05-04 18:44 48.35114 11.79423 1463 ft 3 kts 266°
2026-05-04 18:45 48.35111 11.79377 1462 ft 4 kts 264°
2026-05-04 18:45 48.35110 11.79351 1466 ft 2 kts 264°